EW9837 Weather Reports


time (UTC)temp
C
wind
direction
speed
KPH
gust
KPH
rain 1hr
cm
rain 24hr
cm
rain mn
cm
humidity
%
barometer
mb
20210723153036 21 134 1.6 0.0 0.00 0.00 0.00 48 1025.5
20210723151537 20 142 3.2 0.0 0.00 0.00 0.00 50 1025.5
20210723150040 18 170 4.8 0.0 0.00 0.00 0.00 54 1025.5
20210723144535 17 151 4.8 0.0 0.00 0.00 0.00 58 1025.5
20210723143035 15 162 1.6 0.0 0.00 0.00 0.00 68 1025.5
20210723141544 13 166 3.2 0.0 0.00 0.00 0.00 71 1025.5
20210723140039 12 160 4.8 0.0 0.00 0.00 0.00 70 1025.2
20210723134538 11 194 4.8 0.0 0.00 0.00 0.00 71 1025.2
20210723133032 10 165 8.0 0.0 0.00 0.00 0.00 73 1024.8
20210723131536 10 168 6.4 0.0 0.00 0.00 0.00 70 1024.8
20210723130034 10 149 6.4 0.0 0.00 0.00 0.00 70 1024.5
20210723124538 10 171 6.4 0.0 0.00 0.00 0.00 68 1024.5
20210723123036 11 148 4.8 0.0 0.00 0.00 0.00 66 1024.5
20210723121541 12 189 4.8 0.0 0.00 0.00 0.00 64 1024.5
20210723120039 12 122 3.2 0.0 0.00 0.00 0.00 67 1024.1
20210723114540 11 278 1.6 0.0 0.00 0.00 0.00 72 1023.8
20210723113050 10 193 4.8 0.0 0.00 0.00 0.00 77 1024.1
20210723111537 8 161 4.8 0.0 0.00 0.00 0.00 83 1024.1
20210723110030 8 185 1.6 0.0 0.00 0.00 0.00 83 1024.1
20210723104532 8 160 6.4 0.0 0.00 0.00 0.00 81 1023.8
20210723103041 8 150 4.8 0.0 0.00 0.00 0.00 80 1023.8
20210723101538 8 157 4.8 0.0 0.00 0.00 0.00 80 1023.8
20210723100039 8 164 3.2 0.0 0.00 0.00 0.00 79 1023.8
20210723094537 8 165 4.8 0.0 0.00 0.00 0.00 77 1023.8
20210723093033 9 154 6.4 0.0 0.00 0.00 0.00 77 1023.8
20210723091539 9 148 3.2 0.0 0.00 0.00 0.00 75 1023.8
20210723090047 10 141 4.8 0.0 0.00 0.00 0.00 73 1023.8
20210723084544 10 144 4.8 0.0 0.00 0.00 0.00 75 1023.4
20210723083039 9 132 1.6 0.0 0.00 0.00 0.00 80 1023.4
20210723081536 8 190 4.8 0.0 0.00 0.00 0.00 82 1023.4
20210723080035 8 189 4.8 0.0 0.00 0.00 0.00 83 1023.4
20210723074541 9 183 4.8 0.0 0.00 0.00 0.00 83 1023.4
20210723073038 8 179 6.4 0.0 0.00 0.00 0.00 85 1023.4
20210723071532 8 177 4.8 0.0 0.00 0.00 0.00 84 1023.4
20210723070035 8 173 4.8 0.0 0.00 0.00 0.00 84 1023.4
20210723064545 9 175 6.4 0.0 0.00 0.00 0.00 83 1023.1
20210723063107 9 167 6.4 0.0 0.00 0.00 0.00 81 1023.4
20210723061532 10 172 1.6 0.0 0.00 0.00 0.00 78 1023.1
20210723060041 11 146 3.2 0.0 0.00 0.00 0.00 74 1023.1
20210723054533 12 147 3.2 0.0 0.00 0.00 0.00 71 1023.1
20210723053035 13 125 1.6 0.0 0.00 0.00 0.00 68 1023.1
20210723051532 13 213 3.2 0.0 0.00 0.00 0.00 68 1023.1
20210723050103 12 238 1.6 0.0 0.00 0.00 0.00 69 1023.1
20210723044535 13 186 1.6 0.0 0.00 0.00 0.00 66 1022.7
20210723043046 15 200 1.6 0.0 0.00 0.00 0.00 61 1022.7
20210723041533 16 227 1.6 0.0 0.00 0.00 0.00 53 1022.7
20210723040039 16 241 4.8 0.0 0.00 0.00 0.00 53 1022.3
20210723034530 17 246 1.6 0.0 0.00 0.00 0.00 50 1022.3
20210723033033 18 265 3.2 0.0 0.00 0.00 0.00 46 1022.3
20210723031539 18 255 4.8 0.0 0.00 0.00 0.00 43 1022.0
20210723030033 20 282 6.4 0.0 0.00 0.00 0.00 40 1022.0
20210723024532 21 288 6.4 0.0 0.00 0.00 0.00 37 1021.6
20210723023033 21 316 6.4 0.0 0.00 0.00 0.00 35 1021.3
20210723021538 22 320 6.4 0.0 0.00 0.00 0.00 32 1021.3
20210723020043 22 330 6.4 0.0 0.00 0.00 0.00 31 1020.9
20210723014535 23 328 6.4 0.0 0.00 0.00 0.00 31 1020.9
20210723013043 23 349 4.8 0.0 0.00 0.00 0.00 31 1020.9
20210723011535 23 350 14.5 0.0 0.00 0.00 0.00 31 1020.9
20210723010037 23 350 16.1 0.0 0.00 0.00 0.00 30 1020.6
20210723004543 24 338 9.7 0.0 0.00 0.00 0.00 31 1020.6
20210723003035 23 333 14.5 0.0 0.00 0.00 0.00 31 1020.6
20210723001540 24 302 9.7 0.0 0.00 0.00 0.00 32 1020.6
20210723000039 24 293 8.0 0.0 0.00 0.00 0.00 33 1020.6
20210722234535 25 322 11.3 0.0 0.00 0.00 0.00 32 1020.6
20210722233032 25 302 8.0 0.0 0.00 0.00 0.00 33 1020.6
20210722231542 25 303 8.0 0.0 0.00 0.00 0.00 34 1020.6
20210722230033 25 300 6.4 0.0 0.00 0.00 0.00 35 1020.6
20210722224540 26 335 14.5 0.0 0.00 0.00 0.00 34 1020.6
20210722223058 26 28 6.4 0.0 0.00 0.00 0.00 34 1020.9
20210722221534 25 53 9.7 0.0 0.00 0.00 0.00 36 1020.9
20210722220039 25 67 8.0 0.0 0.00 0.00 0.00 35 1020.9
20210722214537 25 59 9.7 0.0 0.00 0.00 0.00 35 1020.9
20210722213031 25 56 8.0 0.0 0.00 0.00 0.00 36 1020.9
20210722211538 23 71 6.4 0.0 0.00 0.00 0.00 38 1021.3
20210722210031 24 69 6.4 0.0 0.00 0.00 0.00 37 1021.3
20210722204532 23 64 6.4 0.0 0.00 0.00 0.00 38 1021.3
20210722203034 24 55 8.0 0.0 0.00 0.00 0.00 37 1021.6
20210722201533 24 49 8.0 0.0 0.00 0.00 0.00 38 1021.6
20210722200041 23 58 8.0 0.0 0.00 0.00 0.00 38 1022.0
20210722194536 23 40 9.7 0.0 0.00 0.00 0.00 38 1022.0
20210722193033 23 47 9.7 0.0 0.00 0.00 0.00 39 1022.0
20210722191539 23 52 6.4 0.0 0.00 0.00 0.00 40 1022.0
20210722190043 23 46 6.4 0.0 0.00 0.00 0.00 41 1022.3
20210722184537 22 53 6.4 0.0 0.00 0.00 0.00 44 1022.3
20210722183113 21 66 6.4 0.0 0.00 0.00 0.00 43 1022.3
20210722181553 22 50 6.4 0.0 0.00 0.00 0.00 41 1022.3
20210722180043 22 46 6.4 0.0 0.00 0.00 0.00 42 1022.3
20210722174536 21 41 8.0 0.0 0.00 0.00 0.00 41 1022.3
20210722173038 21 35 8.0 0.0 0.00 0.00 0.00 41 1022.3
20210722171539 22 40 9.7 0.0 0.00 0.00 0.00 39 1022.3
20210722170038 22 54 4.8 0.0 0.00 0.00 0.00 37 1022.3
20210722164533 21 65 4.8 0.0 0.00 0.00 0.00 39 1022.7
20210722163035 21 82 3.2 0.0 0.00 0.00 0.00 39 1022.7
20210722161540 20 91 3.2 0.0 0.00 0.00 0.00 42 1022.7
20210722160039 21 46 3.2 0.0 0.00 0.00 0.00 43 1022.7
20210722154554 21 49 4.8 0.0 0.00 0.00 0.00 39 1022.7